This is the latest recevied weather packets stored in our database for station/object K1TTC. If no packets are shown the sender has not sent any weather packets the latest 10 day(s).
| Time | Temp. | Humidity | Pressure | Rain* | Wind** | Luminosity | Snow |
|---|---|---|---|---|---|---|---|
| 1777888315 | 7.22° C | 54% | 1011.8 hPa | 0 mm | - | 5 W/m² | - |
| 1777887714 | 7.22° C | 54% | 1011.7 hPa | 0 mm | - | 0 W/m² | - |
| 1777887113 | 7.22° C | 54% | 1011.7 hPa | 0 mm | - | 0 W/m² | - |
| 1777886514 | 6.67° C | 54% | 1011.4 hPa | 0 mm | - | 0 W/m² | - |
| 1777885913 | 6.67° C | 55% | 1011.4 hPa | 0 mm | - | 0 W/m² | - |
| 1777885314 | 6.67° C | 55% | 1011.3 hPa | 0 mm | - | 0 W/m² | - |
| 1777884713 | 6.67° C | 55% | 1011.5 hPa | 0 mm | - | 0 W/m² | - |
| 1777884113 | 6.67° C | 56% | 1011.5 hPa | 0 mm | - | 0 W/m² | - |
| 1777883522 | 6.67° C | 56% | 1011.6 hPa | 0 mm | - | 0 W/m² | - |
| 1777882920 | 6.67° C | 56% | 1011.6 hPa | 0 mm | - | 0 W/m² | - |
| 1777882319 | 6.67° C | 57% | 1011.6 hPa | 0 mm | - | 0 W/m² | - |
| 1777881849 | 6.67° C | 56% | 1011.6 hPa | 0 mm | - | 0 W/m² | - |
| 1777881119 | 6.11° C | 56% | 1011.6 hPa | 0 mm | - | 0 W/m² | - |
| 1777880517 | 6.11° C | 56% | 1011.5 hPa | 0 mm | - | 0 W/m² | - |
| 1777880048 | 5.56° C | 58% | 1011.3 hPa | 0 mm | - | 0 W/m² | - |
| 1777879315 | 5.56° C | 59% | 1011.4 hPa | 0 mm | - | 0 W/m² | - |
| 1777878715 | 5° C | 60% | 1011.5 hPa | 0 mm | - | 0 W/m² | - |
| 1777878116 | 5° C | 62% | 1011.5 hPa | 0 mm | - | 0 W/m² | - |
| 1777877515 | 4.44° C | 63% | 1011.4 hPa | 0 mm | - | 0 W/m² | - |
| 1777876915 | 4.44° C | 64% | 1011.4 hPa | 0 mm | - | 0 W/m² | - |
| 1777876440 | 3.89° C | 65% | 1011.4 hPa | 0 mm | - | 0 W/m² | - |
| 1777875714 | 3.33° C | 65% | 1011.3 hPa | 0 mm | - | 0 W/m² | - |
| 1777875113 | 3.33° C | 66% | 1011.3 hPa | 0 mm | - | 0 W/m² | - |
| 1777874510 | 2.78° C | 66% | 1011.4 hPa | 0 mm | - | 0 W/m² | - |
| 1777873910 | 2.78° C | 65% | 1011.6 hPa | 0 mm | - | 0 W/m² | - |
* Rain latest hour (hover to see other rain measurements)
** Current wind speed in m/s (hover to see current wind gust speed)